Lapse_Rate
5.3 5.4 5.4 5.6 5.5 5.5 5.5 5.3 5.3 5.3 5.4 5.3 5.2 5.1 5.0 5.0 4.9 5.2 5.2 5.0 5.0 4.9 4.7 4.7 4.5 4.5 4.5 4.5 4.5 4.3 4.2 4.1 4.3 4.2 4.0 4.0 4.0 3.9 3.8 3.8 3.9 3.9 4.1
5.5 5.6 5.7 5.6 5.5 5.5 5.4 5.3 5.3 5.3 5.1 5.1 5.0 5.0 5.0 4.9 4.9 4.9 4.9 4.9 5.0 4.9 4.8 4.7 4.6 4.6 4.6 4.4 4.4 4.3 4.3 4.2 4.1 4.3 4.2 4.0 3.8 3.9 3.9 4.0 4.0 4.0 4.0
5.6 5.6 5.5 5.4 5.4 5.3 5.3 5.2 5.0 4.9 4.8 4.8 4.9 4.9 4.8 4.8 4.8 4.7 4.8 4.8 4.8 4.7 4.7 4.6 4.5 4.4 4.4 4.4 4.5 4.4 4.3 4.3 4.3 4.2 4.3 4.3 4.2 4.0 4.0 4.0 3.9 3.9 3.8
5.4 5.4 5.3 5.2 5.2 5.3 5.3 5.2 5.0 4.9 4.9 4.8 4.6 4.6 4.6 4.6 4.6 4.5 4.5 4.5 4.6 4.5 4.4 4.4 4.2 4.1 4.1 4.1 4.1 4.1 4.1 4.1 4.0 4.0 4.0 4.1 4.3 4.3 4.3 4.3 4.1 4.0 4.1
5.4 5.3 5.3 5.2 5.2 5.1 4.9 4.7 4.6 4.4 4.4 4.4 4.5 4.5 4.5 4.4 4.4 4.3 4.2 4.3 4.3 4.2 4.1 3.9 3.8 3.9 3.8 3.7 3.6 3.7 3.9 3.9 3.9 3.9 3.9 4.0 4.1 4.3 4.3 4.3 4.4 4.4 4.5
5.1 5.2 5.3 5.2 5.0 4.8 4.7 4.5 4.4 4.3 4.3 4.3 4.3 4.3 4.3 4.2 4.2 4.1 4.0 4.0 4.0 4.1 4.0 3.8 3.7 3.7 3.8 3.8 3.7 3.6 3.6 3.7 3.8 3.8 3.8 3.8 3.9 3.9 4.1 4.3 4.5 4.5 4.6
5.1 5.1 4.9 4.7 4.5 4.2 4.0 3.8 3.8 3.8 3.8 3.8 3.7 3.7 3.7 3.7 3.8 3.8 3.9 3.9 3.9 3.7 3.7 3.6 3.4 3.4 3.3 3.3 3.4 3.5 3.5 3.5 3.6 3.7 3.9 3.9 4.1 4.2 4.5 4.6 4.7 4.9 5.0
4.9 4.7 4.5 4.2 4.0 3.8 3.6 3.5 3.5 3.5 3.5 3.5 3.4 3.3 3.3 3.3 3.4 3.5 3.7 3.8 3.9 3.9 3.8 3.7 3.7 3.7 3.5 3.5 3.5 3.6 3.8 3.8 3.7 3.9 4.0 4.1 4.3 4.7 5.0 5.2 5.3 5.3 5.2
4.5 4.2 3.8 3.5 3.4 3.4 3.3 3.3 3.3 3.4 3.5 3.6 3.6 3.6 3.6 3.7 3.7 3.7 3.7 3.8 4.1 4.2 4.4 4.5 4.3 4.2 3.9 3.8 4.0 4.1 4.2 4.3 4.1 3.9 4.1 4.5 4.8 5.1 5.3 5.6 5.5 5.3 5.4
4.3 4.1 3.8 3.7 3.6 3.6 3.6 3.6 3.6 3.6 3.7 3.8 4.1 4.1 4.1 4.2 4.2 4.3 4.3 4.4 4.5 4.6 4.8 4.8 4.7 4.7 4.6 4.4 4.3 4.5 4.6 4.7 4.3 4.5 4.8 4.7 4.7 5.0 5.2 5.3 5.3 5.5 5.3
4.1 3.9 3.6 3.5 3.5 3.5 3.7 3.8 3.8 3.8 3.7 3.7 3.9 4.2 4.4 4.3 4.3 4.2 4.2 4.3 4.5 4.8 5.1 5.2 5.2 5.0 5.0 5.1 4.9 5.1 5.0 4.7 4.8 4.8 5.0 5.1 4.9 4.5 4.6 5.3 5.6 5.8 5.7
3.6 3.5 3.5 3.6 3.7 3.6 3.6 3.7 3.7 3.7 3.8 3.9 4.0 4.2 4.4 4.6 4.6 4.7 4.6 4.6 4.8 4.9 5.3 5.6 5.8 5.7 5.6 5.5 5.5 5.5 5.5 5.2 5.3 5.1 5.2 5.3 5.3 4.8 4.3 4.7 5.4 5.6 5.9
3.9 3.9 3.8 3.7 3.7 3.7 3.7 3.9 4.0 4.2 4.2 4.3 4.5 4.6 4.7 5.0 5.4 5.5 5.4 5.3 5.2 5.2 5.4 5.6 5.8 6.2 6.2 6.2 6.1 5.9 5.7 5.8 6.0 5.8 5.5 5.4 5.3 4.8 4.6 5.3 5.2 5.4 5.4
3.7 3.9 4.1 4.3 4.4 4.7 4.8 4.9 5.0 5.2 5.3 5.3 5.3 5.3 5.3 5.3 5.5 5.5 5.5 5.6 5.9 5.9 5.7 5.7 5.8 6.2 6.4 6.5 6.7 6.4 6.0 6.1 6.4 6.3 5.9 5.8 5.7 5.5 5.6 5.3 5.3 4.9 5.0
4.7 4.7 4.8 4.8 4.9 5.0 5.2 5.4 5.6 5.8 5.8 5.7 5.9 5.7 5.6 5.5 5.6 5.4 5.2 5.2 5.4 5.7 5.9 6.1 6.3 6.2 6.1 6.3 6.5 6.7 6.5 6.2 6.5 6.6 6.1 6.2 6.2 6.2 6.1 6.0 5.3 5.3 5.5
4.6 4.6 4.8 5.0 5.3 5.5 5.6 5.8 6.4 6.4 6.4 6.2 6.1 5.9 5.5 5.5 5.4 5.2 5.2 5.3 5.3 5.3 5.2 5.5 5.8 6.0 6.2 6.2 6.3 6.5 6.6 6.5 6.5 6.6 6.4 6.3 6.4 6.3 6.2 5.9 5.7 5.5 5.1
5.2 5.0 5.4 5.8 6.0 6.1 6.3 6.4 6.2 6.3 6.5 6.3 6.1 6.0 5.9 6.0 5.9 5.7 5.6 5.5 5.4 5.4 5.3 5.1 5.3 5.4 5.7 6.0 6.0 6.2 6.3 6.6 6.3 6.4 6.3 6.3 6.3 6.1 5.8 5.6 5.4 5.1 4.9
6.3 6.3 6.6 6.7 6.7 6.8 7.0 7.0 6.7 6.7 6.0 6.1 6.5 6.4 6.5 6.5 6.4 6.2 6.2 6.0 6.0 6.2 6.0 5.8 5.7 5.6 5.6 5.7 5.8 6.0 6.1 6.3 6.5 6.4 6.3 6.4 6.2 5.8 5.6 5.5 5.1 5.0 4.8
6.6 6.6 6.8 6.8 6.9 7.1 7.1 7.0 7.1 7.1 6.8 6.5 6.6 6.8 6.9 6.9 6.8 6.8 6.7 6.5 6.3 6.2 6.2 6.0 6.0 5.9 5.7 5.5 5.5 5.5 5.8 6.1 6.4 6.4 6.4 6.5 6.2 5.7 5.4 5.2 5.0 5.0 4.8
7.2 7.2 6.9 6.7 6.7 7.0 7.2 7.4 7.4 7.2 7.1 7.1 7.0 7.0 7.1 7.2 7.1 7.1 7.0 7.0 6.9 6.8 6.6 6.4 6.4 6.2 5.9 5.7 5.5 5.8 6.2 6.4 6.6 6.5 6.6 6.4 6.1 5.6 5.3 5.1 5.0 5.0 4.9
6.8 7.0 7.1 7.0 7.1 7.4 7.7 7.5 7.5 7.4 7.3 7.3 7.2 7.2 7.2 7.1 7.0 7.0 7.0 6.9 6.8 6.8 6.7 6.7 6.6 6.5 6.2 5.9 5.7 5.9 6.1 6.4 6.6 6.8 6.6 6.3 5.9 5.5 5.2 5.2 5.2 5.1 5.1
7.1 7.0 7.1 7.3 7.5 7.8 7.7 7.5 7.5 7.5 7.5 7.4 7.4 7.4 7.4 7.3 7.2 7.1 6.9 6.9 6.8 6.7 6.7 6.6 6.6 6.5 6.1 6.1 6.1 6.4 6.5 6.6 6.9 6.8 6.3 5.9 5.6 5.3 5.2 5.2 5.1 5.1 5.2
7.2 7.2 7.2 7.3 7.3 7.3 7.3 7.3 7.4 7.5 7.5 7.4 7.2 7.1 7.1 7.0 7.0 6.9 6.8 6.8 7.0 7.0 7.1 6.8 6.6 6.5 6.2 6.3 6.4 6.7 6.8 6.9 6.8 6.3 6.0 5.7 5.4 5.3 5.3 5.2 5.2 5.2 4.9
7.5 7.4 7.3 7.4 7.4 7.4 7.3 7.3 7.3 7.3 7.2 7.1 7.0 6.9 6.9 6.9 6.7 6.7 6.8 6.9 7.2 7.4 7.3 6.8 6.4 6.4 6.4 6.3 6.8 7.0 7.0 6.8 6.4 6.1 5.8 5.5 5.4 5.3 5.3 5.3 5.2 5.0 4.9
7.6 7.6 7.7 7.8 7.6 7.6 7.4 7.3 7.2 7.2 7.1 7.1 7.1 7.1 7.1 6.9 6.8 6.9 7.0 7.3 7.4 7.4 7.1 6.6 6.4 6.3 6.3 6.6 7.0 7.1 6.8 6.5 6.1 5.9 5.6 5.4 5.3 5.2 5.2 5.2 5.1 5.0 5.1
7.7 7.8 7.9 7.8 7.6 7.5 7.3 7.2 7.0 7.0 7.0 7.0 7.0 7.0 7.0 7.0 7.1 7.2 7.4 7.4 7.4 7.1 6.7 6.5 6.5 6.3 6.8 6.9 7.0 6.9 6.6 6.2 5.9 5.7 5.5 5.4 5.2 5.2 5.2 5.2 5.2 5.1 5.0
Wind_Speed
6 6 7 6 7 6 6 6 6 6 6 6 6 6 6 6 6 5 6 6 6 6 4 5 6 3 3 3 2 2 2 3 4 2 1 1 3 4 3 4 5 5 3
6 6 6 6 6 6 7 7 7 7 7 6 6 6 6 6 6 6 6 6 6 6 6 5 6 3 4 3 2 3 2 2 2 4 3 3 3 2 3 3 2 3 2
6 6 6 6 6 7 7 7 7 7 7 7 6 6 7 6 6 6 6 6 6 7 6 6 6 4 5 3 3 4 2 2 2 2 2 1 1 1 0 1 1 1 2
6 6 6 6 6 6 6 7 7 6 6 7 7 6 6 6 6 6 6 6 7 6 6 6 6 6 6 6 5 5 4 3 3 2 2 2 1 0 0 2 2 1 2
5 5 5 6 6 6 6 6 6 6 6 6 7 7 6 6 5 6 6 7 7 7 6 6 7 8 12 9 4 5 4 3 3 3 2 2 3 2 3 2 2 0 2
5 6 6 6 6 7 7 7 7 7 6 6 7 6 7 6 14 14 10 6 6 6 7 6 6 11 10 15 14 14 9 5 5 4 3 4 3 3 3 3 2 1 2
5 5 6 6 6 6 6 6 7 7 7 6 7 7 7 7 14 14 14 5 6 6 7 6 6 5 10 6 12 15 14 15 12 5 5 5 4 6 5 4 4 3 3
5 6 6 6 6 6 6 6 6 5 6 7 7 7 7 7 17 16 15 6 6 6 7 7 7 7 7 7 6 6 6 6 7 6 6 5 5 5 6 5 5 3 1
6 6 6 6 6 6 7 7 6 5 5 5 5 8 8 9 15 16 13 6 6 7 6 6 7 7 12 16 7 7 7 7 8 14 13 12 11 12 9 4 3 2 2
6 6 6 6 6 7 7 7 4 4 6 5 8 6 10 9 14 16 13 4 6 6 6 6 13 11 15 17 10 8 9 8 7 5 4 9 11 9 15 6 5 2 2
6 6 6 6 6 6 6 3 5 6 6 6 6 7 6 7 9 16 16 5 5 7 6 6 5 15 17 19 19 8 11 7 10 6 5 4 3 5 4 6 6 3 3
6 6 7 7 5 5 6 6 6 5 6 7 7 8 5 6 10 12 17 16 14 6 8 7 7 17 18 17 14 18 19 16 4 4 4 4 5 5 4 4 4 4 4
6 8 8 7 6 5 6 7 6 5 4 6 5 6 7 7 6 11 14 16 16 9 6 10 18 19 20 16 18 18 17 8 6 6 6 7 6 5 4 3 3 4 4
8 9 8 6 9 7 4 5 6 6 6 5 6 7 7 6 7 4 4 6 12 11 12 9 10 13 16 12 11 9 6 7 8 8 7 5 4 4 5 4 4 3 2
8 8 8 7 8 9 8 7 6 8 8 7 7 6 7 8 9 14 15 10 11 14 16 10 4 3 5 6 6 7 6 6 8 8 7 6 6 6 6 5 3 2 3
9 7 7 6 6 7 7 9 14 19 21 21 22 16 10 18 23 22 22 22 22 22 12 11 11 9 8 8 8 8 8 10 8 8 8 8 7 7 7 5 3 4 5
9 10 7 9 7 7 7 6 9 12 16 20 21 22 22 21 22 22 24 23 25 20 8 10 12 11 9 8 8 9 9 8 10 8 9 8 8 7 10 6 6 5 5
10 19 9 9 8 8 7 8 7 8 9 10 16 16 20 22 23 23 24 21 11 10 6 10 10 10 8 9 9 9 8 8 9 9 9 9 8 8 7 7 7 6 5
10 9 7 8 9 10 9 9 8 9 9 10 9 15 18 21 22 23 23 9 9 10 9 9 8 8 10 8 9 9 10 9 9 8 9 8 8 8 7 7 8 12 9
9 19 15 8 9 9 8 9 9 9 9 9 9 11 10 9 9 10 7 8 9 9 9 9 9 8 9 10 8 8 9 10 9 8 8 8 8 9 8 8 8 7 6
8 9 17 9 9 8 8 10 9 9 9 10 11 12 20 11 11 12 12 10 9 8 9 9 9 8 9 9 8 8 9 8 9 9 8 8 8 8 7 8 7 6 5
8 9 9 8 8 8 9 9 9 10 11 11 12 12 22 12 10 10 11 11 10 9 9 9 9 8 8 8 8 8 9 9 8 8 8 8 8 8 8 7 7 6 5
8 9 9 9 9 13 10 10 9 10 11 11 12 11 10 10 9 10 11 11 10 9 8 8 9 9 8 8 9 8 8 8 8 9 9 9 8 8 8 8 7 6 6
7 9 9 10 9 9 11 12 12 17 14 12 11 11 11 10 10 12 12 11 11 10 9 9 9 13 10 10 7 7 7 7 7 9 12 10 9 12 8 8 7 8 7
8 9 10 10 11 12 12 12 12 13 12 11 11 11 11 11 11 12 11 10 11 9 10 9 8 12 12 13 12 11 10 16 11 11 8 11 12 13 10 8 8 7 6
10 11 11 11 13 13 12 12 12 12 12 11 11 11 11 10 11 11 11 11 10 9 10 8 9 13 13 11 12 13 17 19 15 20 10 9 10 9 8 9 11 7 7
Wind_Direction
332 328 337 336 338 336 332 329 330 319 321 311 301 293 280 272 263 254 256 267 268 274 273 272 281 275 273 279 274 257 236 204 223 212 179 166 163 167 168 165 163 163 164
330 333 331 332 338 341 336 331 330 327 323 316 310 297 287 275 265 250 253 248 252 268 272 276 272 277 277 262 252 264 258 246 243 255 201 204 197 217 191 178 170 155 178
331 337 339 342 343 339 333 330 330 330 328 327 323 314 306 298 290 269 252 249 245 242 245 248 255 252 261 252 245 249 228 225 217 233 260 320 312 98 271 348 244 256 267
334 342 343 339 334 328 321 323 326 328 330 333 325 315 311 306 290 277 266 256 251 250 246 242 246 237 238 236 230 229 218 220 202 201 222 224 214 301 329 195 245 308 311
326 329 324 315 316 317 325 327 326 333 336 325 328 333 325 318 299 303 279 269 259 258 254 246 244 240 243 234 219 234 212 209 206 211 215 200 204 193 203 198 221 94 288
321 322 323 330 330 327 326 328 326 323 320 323 327 324 322 324 319 320 309 271 264 259 265 259 250 256 255 251 246 233 209 194 204 192 201 209 204 195 177 180 168 174 261
321 318 319 318 316 315 314 323 330 328 325 325 321 324 320 309 325 324 315 288 268 258 260 258 262 247 244 235 252 249 240 229 220 188 209 205 208 198 167 176 184 174 205
318 317 319 324 318 315 318 319 314 305 315 315 314 313 315 314 326 326 320 299 288 271 255 250 244 253 239 235 229 242 242 244 237 224 203 212 209 189 181 177 175 173 177
303 304 308 317 319 321 320 317 310 310 316 303 300 310 312 309 322 326 326 302 288 279 262 253 246 250 246 248 225 237 244 245 242 242 231 228 222 208 179 134 158 134 210
295 294 295 298 301 301 296 303 285 289 289 297 303 284 301 307 317 325 326 300 295 292 273 256 265 257 256 253 236 215 237 237 216 228 242 234 226 210 196 184 159 156 161
281 285 282 279 279 275 288 272 285 301 298 299 296 303 274 277 299 321 325 308 284 295 284 283 257 264 265 258 246 215 227 225 226 214 210 213 199 185 187 175 179 164 163
282 283 278 275 273 284 286 291 287 289 298 302 305 309 300 280 285 302 319 322 314 298 293 282 262 270 269 263 259 247 236 237 201 199 190 195 196 196 194 183 182 185 191
299 287 283 286 283 270 273 283 291 280 266 281 280 289 293 301 287 288 301 311 311 301 277 276 290 281 270 269 260 256 253 229 196 202 207 205 201 194 160 153 162 175 192
275 278 283 281 291 280 258 257 261 269 272 268 271 274 280 286 288 287 274 288 296 292 282 278 274 287 272 254 256 255 243 232 200 208 208 197 170 159 184 174 175 166 142
262 263 266 267 268 274 267 265 257 251 239 257 258 256 276 288 285 293 301 303 303 300 302 283 252 247 249 245 238 233 234 230 214 199 189 180 187 181 189 174 155 153 171
273 271 261 258 260 257 266 285 270 268 274 267 269 267 271 268 280 287 288 293 295 299 301 291 281 262 246 236 231 231 228 226 216 197 193 189 189 184 179 174 158 180 197
268 280 273 271 265 264 268 265 284 298 279 274 270 271 272 271 278 280 282 286 287 294 286 286 283 275 260 244 236 234 231 220 211 200 195 190 185 184 188 181 184 186 195
272 277 279 280 276 275 269 263 262 266 281 287 286 278 276 280 283 283 284 290 285 281 265 284 282 280 274 262 248 237 227 220 211 208 200 194 187 185 187 184 186 187 186
271 273 271 267 270 269 272 267 265 264 263 268 281 284 279 284 285 286 288 278 276 273 268 266 263 271 271 256 253 246 230 216 206 204 199 194 187 183 190 184 185 187 184
279 273 277 275 272 270 269 268 269 265 265 264 266 266 279 288 284 286 266 262 274 272 273 270 267 265 263 264 252 242 227 216 208 203 200 192 188 186 184 178 179 181 190
269 273 272 269 262 263 266 265 264 262 263 265 265 267 270 276 281 284 287 284 278 270 270 270 272 255 258 254 254 244 229 212 200 195 193 187 180 181 176 174 171 170 170
263 268 270 266 266 264 262 263 262 261 264 269 276 276 280 283 279 280 280 278 272 265 261 265 270 263 260 256 256 239 224 208 197 188 183 177 174 172 165 162 157 160 167
265 267 270 268 263 269 272 268 267 268 272 274 277 278 274 274 273 273 276 277 273 268 255 258 263 262 255 253 249 231 224 206 192 179 174 170 168 166 163 159 158 159 169
261 262 266 271 274 272 272 275 278 279 279 276 273 270 268 269 269 270 270 271 272 268 260 265 265 264 260 261 241 224 214 193 179 179 168 166 165 163 154 153 158 165 165
269 268 270 273 277 280 280 276 274 274 274 271 270 269 268 266 267 267 269 269 271 270 261 267 261 266 261 250 243 211 195 176 169 163 163 161 160 154 153 154 156 158 151
275 273 274 280 283 282 280 278 278 277 273 269 267 268 267 267 267 270 271 272 270 263 260 266 271 261 255 252 230 199 185 178 170 161 155 152 152 148 148 151 155 157 153